TRICOM-1R (TASUKI) (43201 NORAD) Tracking and Keplerian Element Data

This shows tracking and keplerian element data for the satellite.

Feedback or suggestion? Click here.




ElementValue
Catalog43201
NameTRICOM-1R (TASUKI)
Epoch Orbit402
Epoch Day63.86762731
Epoch Year2018
RAAN108.0903
Inclination30.9206
Eccentricity0.1112945
Argument of Perigee316.0708
Mean Anonmoly33.989
Mean Motion13.67711308
Decay Rate0.00392993
L11 43201U 18016A 18063.86762731 .00392993 -31113-5 83074-3 0 9999
L22 43201 30.9206 108.0903 1112945 316.0708 33.9890 13.67711308 4026

Live tracking and technical data element details for TRICOM-1R (TASUKI) (NORAD 43201). TRICOM-1R (TASUKI) can be tracked NOW for your location showing map with azimuth and elevation plus other details from your city location.

Track the satellite on the map from your city or location and see movement details for azimuth, elevation, latitude, longitude, range, height, and movement on the map or in text.







IsCatalogInMostPopularTable: catalog: 43201, numindb: 155
Update: records affected: 1



GetName: 43201 TRICOM-1R (TASUKI)

Hit Count: updated at: Fri, 17 Aug 2018 13:19:33 GMT